Theta_e
311 311 311 311 311 310 310 311 311 312 312 312 312 312 312 311 311 311 312 312 311 311 310 309 309 310 310 311 311 311 310 310 311 311 312 314 315 314 313 313 312 313 313 313 313 314 314 314 315 315 316 316 316 317 316 317 316 321 332 334 322 318 319 318 320 317 318 322 315 313 315 315 316 315 314 315 314 315 314 314 314 314 314 315 315 314 313 313
310 310 310 310 310 310 311 311 311 312 312 312 312 312 311 311 312 312 312 311 311 310 309 309 310 310 310 311 310 311 310 310 311 311 313 315 316 314 313 313 313 313 313 313 313 314 315 314 314 315 316 316 315 317 316 316 315 321 333 332 323 323 319 314 316 313 314 318 314 314 315 314 316 315 314 316 314 313 314 314 313 314 314 314 314 314 313 313
310 310 310 310 310 310 311 311 312 312 312 312 311 311 311 311 311 311 311 311 310 309 309 309 310 310 310 311 310 310 311 311 311 313 315 314 314 313 313 313 313 313 313 313 313 314 315 313 314 315 315 315 315 316 315 316 315 314 325 330 323 320 316 312 314 313 315 315 313 314 314 314 315 315 314 315 314 312 314 315 313 314 314 314 314 314 314 313
309 310 310 310 310 311 311 311 311 311 311 311 311 311 311 311 311 310 311 310 309 308 308 309 310 310 310 310 310 311 311 311 312 314 315 313 313 313 313 313 313 313 313 313 314 314 314 314 314 315 315 315 314 316 315 315 314 312 321 327 318 313 315 315 314 315 315 314 314 314 314 315 314 315 315 313 315 315 314 315 315 315 315 315 314 314 314 313
310 310 310 311 311 311 311 310 311 311 310 310 310 310 310 309 309 308 309 308 308 308 308 309 309 310 310 310 310 310 311 313 313 313 313 313 313 312 313 313 313 313 313 313 313 314 314 314 315 315 315 315 314 316 315 314 314 313 315 316 313 311 315 316 313 315 315 315 315 314 314 315 314 315 314 314 318 318 315 315 316 316 315 315 315 314 314 312
310 310 310 310 310 310 309 309 309 309 309 309 309 309 308 308 307 307 308 307 308 308 308 309 309 310 310 310 310 310 312 315 315 313 313 313 313 313 313 313 313 313 313 313 313 313 314 315 315 315 314 313 313 315 316 314 314 317 314 311 312 312 314 315 314 315 315 316 315 314 315 315 314 315 314 314 316 317 315 315 315 315 315 315 314 314 313 313
309 309 309 308 308 308 308 308 307 308 307 307 307 307 307 307 307 307 307 307 308 308 309 309 310 310 310 310 310 310 311 313 315 313 313 313 313 313 313 313 313 313 313 313 313 313 314 315 315 314 314 314 313 314 316 315 314 319 318 313 314 313 314 315 314 315 315 315 316 315 315 314 314 315 314 313 315 315 315 315 315 315 315 314 315 314 313 313
307 307 307 307 307 307 307 307 307 307 307 307 307 307 307 307 307 307 307 308 308 309 309 309 310 309 310 310 310 311 311 312 314 314 313 313 313 313 313 312 313 313 314 313 313 313 314 315 315 315 314 314 314 314 314 316 315 318 318 314 314 315 315 316 315 315 315 314 314 314 314 314 315 314 313 314 315 315 315 315 315 315 315 315 315 314 313 313
307 307 308 308 308 308 308 308 307 308 307 307 307 307 307 307 307 308 308 308 308 309 309 309 310 309 310 310 309 312 312 313 314 314 313 313 312 312 312 313 315 316 316 315 314 314 314 315 315 315 315 314 315 314 314 316 316 315 316 314 315 315 315 316 315 315 314 314 314 314 314 314 313 313 314 315 315 315 315 315 315 315 315 315 314 314 313 313
309 309 309 309 309 309 309 309 309 309 308 308 308 308 308 308 308 308 308 309 308 309 309 309 309 309 310 309 310 312 312 314 314 314 313 313 312 312 313 314 316 317 316 316 315 314 315 315 315 315 315 315 315 314 314 316 316 315 315 315 315 315 315 315 315 316 315 314 314 314 314 314 312 313 316 316 314 314 315 315 315 315 314 314 314 313 313 313
310 310 310 310 310 310 310 310 310 310 310 310 309 309 308 308 308 308 308 309 309 309 309 309 309 309 309 309 310 312 314 315 314 313 313 313 312 312 314 315 316 316 317 317 316 316 316 315 315 315 316 316 315 315 314 314 315 314 315 316 315 314 315 315 314 314 315 314 314 314 314 313 312 313 316 315 315 315 314 315 314 313 313 313 313 313 312 312
311 311 310 310 310 310 310 309 309 309 310 310 310 310 309 309 309 309 309 309 309 309 309 309 309 309 309 309 310 312 315 316 314 313 313 313 312 313 314 315 316 316 317 317 317 317 316 316 315 316 316 315 315 315 315 315 314 315 315 318 320 319 319 314 312 313 314 315 314 314 315 316 315 314 315 315 314 315 314 314 314 313 312 312 312 312 312 312
310 310 310 310 309 309 309 309 309 309 309 309 309 310 310 310 310 309 309 309 309 309 309 309 309 309 309 309 310 311 313 315 315 313 313 313 312 314 314 314 315 315 316 317 318 318 317 318 316 316 316 315 316 315 315 314 313 316 314 316 323 324 323 315 311 313 312 314 314 314 319 326 324 315 313 315 314 314 313 313 313 313 312 312 312 312 312 311
309 309 309 309 309 308 308 308 308 308 308 308 308 309 309 310 310 310 310 309 309 309 309 309 308 309 309 310 312 311 311 313 315 314 313 313 313 314 313 314 315 314 316 317 318 318 317 318 317 317 315 315 315 314 319 318 316 320 313 319 325 320 327 320 310 312 314 313 313 314 319 326 327 316 312 314 314 314 313 313 313 312 312 312 312 311 311 311
308 309 308 308 308 308 308 308 308 308 308 308 308 308 308 308 309 310 310 310 310 309 309 309 308 309 310 310 310 311 311 312 314 315 313 313 313 314 313 314 315 315 316 317 317 318 317 318 317 317 315 315 316 317 327 325 324 326 315 324 327 317 330 329 310 311 317 314 311 315 320 321 321 315 312 313 313 313 313 313 313 312 312 311 312 311 311 311
308 308 308 308 308 307 308 308 308 308 307 308 308 308 308 307 308 308 309 310 310 309 309 309 308 310 311 311 311 312 312 311 314 315 314 313 313 314 314 314 314 315 316 316 317 317 318 318 315 315 314 315 320 327 334 327 328 332 320 323 329 320 326 327 313 310 312 313 312 313 320 323 320 312 311 313 312 313 312 312 313 312 312 312 311 312 311 311
308 308 307 307 307 307 307 307 308 307 307 307 307 308 307 307 307 307 308 308 309 309 308 310 310 310 311 312 313 314 312 311 313 315 315 315 314 314 314 315 315 316 317 317 318 317 316 316 315 316 315 314 319 328 331 323 326 331 320 320 328 324 321 324 323 314 309 313 315 313 315 320 319 311 310 313 312 312 311 312 313 312 312 312 311 311 311 311
307 307 307 307 307 307 307 307 307 307 307 307 307 307 307 306 306 306 306 306 308 308 308 311 312 311 312 312 313 314 313 312 312 314 316 315 315 314 314 315 315 316 316 316 316 316 315 315 316 320 319 315 318 324 324 323 328 331 324 323 325 322 319 322 325 316 311 314 315 315 315 316 317 312 311 312 312 311 311 312 312 311 312 312 311 311 311 311
308 307 307 307 307 307 307 307 307 307 307 307 307 307 306 306 306 306 306 306 308 310 311 312 312 311 314 312 311 313 314 313 313 314 315 315 315 315 315 315 316 316 315 316 316 315 315 315 318 321 321 319 319 321 322 322 328 332 330 329 328 324 322 323 324 317 312 314 316 315 315 315 316 314 312 311 311 310 310 311 310 310 311 311 312 311 311 311
309 308 307 307 307 306 306 306 306 307 307 307 307 306 307 308 310 310 309 308 308 310 311 312 311 311 314 314 312 313 314 314 314 314 314 315 315 315 315 315 316 315 315 319 318 313 314 319 322 322 322 320 319 318 320 321 323 325 326 327 326 325 324 324 324 316 309 314 319 317 315 315 315 315 312 309 310 309 308 309 309 310 310 311 312 311 311 311
308 308 308 307 307 306 306 306 306 307 307 307 307 307 308 309 311 312 311 309 308 307 309 312 312 311 313 314 313 313 314 315 315 315 315 315 315 315 316 315 317 317 315 315 316 313 316 320 323 323 319 317 318 317 317 319 320 319 321 322 322 324 323 320 320 316 310 313 321 318 315 314 313 313 311 308 309 309 308 308 309 310 311 311 311 311 312 311
308 308 308 308 307 306 306 306 306 306 306 307 307 307 308 308 310 312 312 311 310 308 307 310 312 312 312 313 314 314 314 316 316 316 315 315 316 315 315 315 318 320 315 313 316 317 318 321 321 318 314 314 317 316 315 317 317 318 318 318 321 322 321 321 321 316 312 314 321 321 317 315 314 313 310 308 308 310 311 311 312 312 311 311 311 311 312 311
307 307 307 307 307 306 306 306 306 307 307 307 307 307 308 309 309 311 313 314 314 311 308 309 311 312 313 313 314 315 315 316 316 316 316 315 315 315 314 315 318 320 317 317 321 321 321 324 319 312 312 316 318 317 315 315 316 318 319 318 321 321 319 323 323 316 313 315 318 319 316 314 314 314 313 310 309 310 312 312 312 312 312 312 312 312 312 311
308 307 307 307 307 307 307 307 307 307 307 307 307 306 308 311 311 311 312 314 315 315 311 310 310 309 312 313 314 316 315 316 316 316 316 315 315 315 314 314 317 318 317 317 320 320 322 321 314 311 314 318 318 317 317 318 319 320 320 318 320 321 319 322 322 318 319 319 317 317 318 319 319 317 316 314 311 310 311 312 312 312 312 312 312 312 312 312
313 308 307 307 307 308 308 308 307 307 306 307 307 306 308 312 313 312 312 314 315 316 313 312 312 311 310 311 313 315 316 316 316 316 316 315 315 315 314 314 316 318 317 316 317 318 319 314 312 316 317 316 318 319 320 321 321 322 322 319 318 320 320 319 320 318 323 327 319 315 322 330 331 323 318 317 316 314 312 309 310 312 312 311 311 311 310 311
318 313 309 308 309 309 309 309 308 306 307 307 307 307 309 312 315 313 314 317 317 315 315 313 314 314 311 311 314 315 316 316 316 316 316 316 315 315 315 314 314 316 316 315 315 316 317 312 316 324 320 317 319 319 320 320 319 322 323 321 317 317 319 319 320 319 325 328 317 316 324 327 326 324 322 322 323 323 318 311 310 311 312 311 311 311 310 310
320 318 314 311 311 310 309 310 309 307 307 308 307 308 310 313 315 312 312 318 316 313 316 315 312 314 313 312 314 313 315 316 315 316 316 316 316 315 317 316 314 314 312 314 316 316 316 315 317 322 321 320 319 319 321 318 319 325 322 320 318 317 318 319 319 321 324 324 318 320 325 323 321 321 322 323 324 325 324 320 314 311 311 312 312 311 310 310
320 321 318 315 313 311 310 310 310 309 308 309 307 308 312 314 314 312 312 315 314 313 317 315 312 313 314 313 314 313 314 314 315 317 316 316 316 314 316 315 315 316 313 314 318 315 315 319 319 319 321 320 320 323 322 316 320 324 317 316 319 318 320 321 320 322 321 320 322 322 320 321 324 322 320 320 321 323 324 323 319 313 313 313 312 312 311 310
321 321 321 318 315 313 311 310 312 310 310 310 309 310 313 313 312 314 316 315 314 316 316 315 314 313 314 314 313 313 313 313 315 316 315 315 315 314 315 314 313 316 313 313 318 316 314 317 316 317 320 320 323 324 319 318 320 316 312 317 320 320 323 325 324 324 324 322 323 324 321 321 325 325 322 319 321 326 324 321 317 313 313 314 313 313 311 310
321 322 322 320 316 314 311 310 312 311 311 311 310 311 313 314 313 315 317 317 317 318 314 313 315 314 314 314 313 313 313 313 314 314 314 314 314 313 315 314 313 317 317 314 318 317 313 311 311 315 317 316 319 317 311 315 315 311 317 324 324 325 326 327 326 323 324 324 323 325 323 321 324 326 326 322 323 328 325 323 323 316 313 314 314 313 312 311
322 322 322 320 318 316 312 312 313 312 312 312 312 313 314 317 317 317 317 317 317 318 314 314 316 314 314 315 315 314 314 313 313 314 314 314 314 314 314 315 315 319 320 318 319 317 313 314 314 314 313 312 317 317 311 311 310 315 329 329 325 328 327 326 326 324 326 326 322 323 320 319 323 324 325 323 322 324 322 325 330 321 314 314 314 313 312 311
322 322 322 321 320 317 315 315 314 313 314 314 313 315 316 317 318 319 319 317 319 320 318 318 317 314 315 316 316 315 315 315 313 314 316 315 315 315 315 317 317 319 319 319 320 318 317 319 316 312 312 313 320 322 316 313 313 319 328 325 323 327 325 325 327 324 325 322 317 317 318 319 321 321 323 322 321 323 318 315 319 316 313 314 315 314 312 310
322 321 321 321 321 319 317 316 314 313 315 315 313 315 317 318 319 320 319 320 321 319 318 319 317 315 316 316 317 315 315 317 314 314 315 315 316 315 315 317 317 319 322 318 317 319 321 320 316 315 315 314 318 321 320 318 317 319 322 323 324 325 326 330 328 323 323 322 315 314 317 321 322 322 323 321 318 319 314 311 312 312 312 314 314 313 312 310
320 320 320 319 319 319 318 315 312 314 316 315 314 316 317 318 319 320 320 320 321 319 318 319 316 315 315 318 319 315 315 318 315 315 316 316 317 316 316 317 315 319 325 320 317 320 321 321 319 318 317 316 316 317 321 322 317 317 320 321 323 325 329 333 331 327 326 325 318 313 318 325 326 326 323 315 311 312 313 313 313 311 312 312 312 311 311 310
319 320 320 318 318 317 317 315 312 314 316 315 316 317 317 318 320 321 321 319 322 322 318 316 316 316 317 319 320 315 315 319 315 316 317 316 317 317 316 317 314 318 322 319 319 319 319 323 323 316 313 315 316 315 318 321 318 317 319 320 322 324 326 325 323 322 322 324 321 317 320 324 324 323 318 311 311 312 311 310 310 311 311 310 310 310 310 310
317 318 319 319 318 317 317 315 312 313 316 315 316 317 317 319 320 322 321 319 322 321 317 317 318 319 318 318 319 316 315 319 317 316 318 316 317 317 317 317 314 315 317 316 321 321 320 323 319 312 312 313 313 314 314 317 320 318 317 320 319 317 319 322 319 315 316 321 323 320 322 323 322 321 317 315 319 318 313 310 308 308 308 308 308 309 310 310
314 316 318 318 318 318 317 316 313 314 316 316 317 317 317 319 320 321 321 319 319 318 318 320 320 320 319 318 319 318 316 318 317 317 318 316 318 318 316 317 315 313 315 315 321 322 321 324 318 313 316 313 309 312 312 310 315 320 320 319 316 315 320 324 323 321 322 324 323 321 321 322 322 322 319 317 318 319 319 316 309 306 306 306 307 309 309 310
311 315 317 318 318 318 318 317 314 314 316 316 317 317 317 319 319 319 319 318 318 318 319 321 319 319 320 319 319 318 317 319 317 317 319 317 318 319 316 317 316 313 314 314 318 321 319 321 319 313 316 313 309 314 316 311 311 317 320 317 318 323 324 322 323 325 326 326 325 323 320 319 320 321 321 320 322 324 322 319 315 311 306 304 306 308 308 309
310 313 316 317 318 318 318 317 315 314 316 316 316 316 317 318 317 317 318 317 317 319 319 321 320 319 319 319 319 317 316 319 317 316 319 318 318 318 315 317 317 313 312 313 317 322 319 320 322 313 311 313 313 315 319 317 312 312 315 314 318 324 323 321 322 323 325 326 326 325 322 321 321 321 323 322 325 329 325 324 325 316 307 306 306 307 308 309
310 312 315 315 316 318 318 317 315 315 316 315 315 315 315 317 316 316 318 318 317 319 320 321 321 320 320 318 319 318 317 318 316 316 318 318 318 318 315 316 318 314 312 312 315 320 319 318 322 316 311 314 317 317 318 318 315 315 317 316 317 318 319 321 321 320 324 326 327 326 323 322 324 323 323 322 322 326 326 328 327 315 307 308 308 307 310 310
312 312 313 313 315 318 317 315 315 315 315 314 314 314 315 316 315 316 317 317 317 318 319 320 321 321 320 318 318 319 317 317 316 316 318 317 317 319 316 314 317 316 313 313 316 318 319 320 323 321 315 316 320 317 314 315 317 316 317 318 317 317 318 321 320 319 320 322 325 326 323 323 325 321 320 322 322 320 317 317 315 310 307 309 308 308 309 310
314 314 313 312 313 316 316 314 315 316 315 313 313 314 314 315 315 315 316 316 317 318 318 319 321 321 320 319 319 319 318 318 316 316 317 317 317 319 318 314 314 314 313 315 316 315 319 323 324 322 318 317 318 312 307 311 316 315 317 319 318 316 318 321 322 321 319 319 320 321 322 322 319 317 318 319 314 309 307 307 307 309 310 309 308 308 308 309
315 315 314 314 314 315 316 315 315 315 314 312 312 313 313 314 315 315 315 316 316 317 318 320 320 320 320 320 319 319 319 319 318 316 317 317 317 317 316 313 313 313 314 317 316 314 317 321 322 321 318 317 317 313 308 310 314 315 317 320 318 316 318 321 322 321 321 322 319 319 323 320 316 316 312 306 304 304 306 308 308 310 311 309 308 309 308 308
315 315 315 315 315 316 316 316 315 314 313 312 312 313 313 313 314 315 315 315 316 317 318 319 320 319 319 321 320 319 319 320 319 318 317 319 318 315 314 313 313 314 315 317 317 315 317 321 322 322 322 321 320 319 315 313 314 316 319 318 316 317 318 318 319 318 320 322 320 321 323 318 318 320 311 306 310 310 307 308 310 311 313 310 308 309 309 308
314 314 314 315 316 316 316 316 315 313 312 312 312 313 313 313 313 314 315 315 315 317 317 318 319 318 320 321 320 319 319 320 321 320 318 319 318 313 312 313 314 314 314 315 314 314 318 322 320 320 324 323 322 322 320 316 314 317 320 317 315 317 317 318 318 318 319 320 319 321 322 319 320 320 316 315 321 319 312 311 312 313 314 312 309 309 309 308
312 314 314 314 315 316 315 315 315 313 311 311 311 311 313 313 313 313 314 315 315 315 316 318 319 318 320 321 320 320 320 319 321 323 320 320 320 314 311 312 313 313 313 314 313 316 322 323 318 319 322 322 323 324 321 318 316 317 318 316 315 316 316 317 318 319 320 320 319 320 319 320 321 319 319 321 324 326 320 313 312 316 317 314 310 308 308 308
310 312 313 314 315 315 315 315 315 314 311 310 310 310 311 312 313 312 313 315 315 315 315 317 319 319 320 320 320 321 320 319 321 322 320 320 320 314 310 310 312 312 313 314 313 317 323 322 318 320 320 319 324 325 320 318 318 318 317 316 315 315 315 317 318 319 321 321 320 320 319 320 320 318 320 323 323 326 320 311 312 317 318 315 312 308 307 307
308 310 312 312 313 315 315 314 314 314 312 310 309 310 310 310 311 312 313 313 314 315 315 316 318 319 320 320 320 320 320 320 320 320 320 319 319 315 311 311 311 310 312 313 312 315 320 320 319 321 320 319 323 322 318 318 318 317 317 317 315 315 315 316 317 317 320 320 320 321 321 321 319 317 319 320 318 319 317 313 314 316 315 316 313 309 308 307
306 308 309 309 311 312 313 312 312 313 313 311 310 310 310 310 311 311 312 313 313 314 315 315 316 318 319 320 320 320 320 321 320 320 319 319 319 317 316 316 312 308 310 313 311 311 317 321 320 320 320 319 321 320 317 317 318 317 317 316 316 315 315 315 316 316 318 319 319 320 321 320 318 318 321 319 315 314 314 313 313 314 314 314 312 310 309 308
305 306 307 308 309 309 310 311 312 313 313 312 311 310 309 310 311 311 312 313 314 313 314 315 315 316 317 318 319 320 320 319 321 320 319 318 319 317 317 319 316 311 310 312 311 310 315 320 320 319 320 320 320 319 317 316 318 318 317 316 315 315 315 315 315 316 316 317 317 318 319 319 316 317 318 316 313 312 312 311 311 313 313 312 311 311 310 308
305 306 307 307 307 308 309 310 311 313 313 312 312 310 309 310 311 311 312 312 313 313 314 315 315 315 316 317 318 319 318 318 320 318 317 318 317 317 317 316 315 314 313 312 312 313 315 318 318 319 321 320 319 319 316 316 317 318 318 317 315 314 315 314 315 315 316 317 317 317 318 318 316 316 316 313 312 310 309 309 310 312 313 312 312 313 312 311
304 305 305 305 306 308 310 310 310 312 313 312 311 310 310 310 310 311 312 312 312 313 313 314 315 315 316 316 316 317 317 317 317 316 316 316 315 315 315 312 312 314 313 312 314 315 315 317 317 318 320 320 319 318 316 316 318 319 319 318 315 314 314 314 314 315 315 316 317 317 317 317 317 317 317 317 316 312 308 310 311 312 313 313 313 314 313 312
Wind_Speed
15 15 14 13 12 11 11 11 10 10 9 9 9 9 9 8 9 9 10 10 9 9 9 9 10 9 8 7 6 6 6 6 6 6 6 6 6 5 4 4 4 3 2 2 4 4 3 2 2 2 3 3 5 4 5 5 3 3 3 4 3 4 4 5 7 7 4 3 7 9 9 7 4 5 7 5 6 8 8 8 8 9 9 11 12 12 17 16
15 15 14 13 12 12 11 11 10 10 10 10 9 9 9 9 10 10 10 10 10 9 9 10 10 10 8 7 6 5 5 6 6 7 6 6 6 4 4 5 4 3 2 1 1 3 4 2 1 2 3 3 5 4 3 4 4 3 3 4 3 5 4 4 7 10 4 3 9 9 8 8 7 8 10 4 3 6 5 6 8 9 11 12 13 14 17 17
15 15 14 13 12 12 12 11 11 11 10 10 10 10 10 10 11 11 11 10 10 10 10 10 10 9 8 7 6 5 5 5 6 6 6 6 6 6 7 7 6 4 3 3 2 2 3 2 1 2 3 4 4 4 4 5 3 2 4 3 4 6 3 3 5 10 7 5 10 8 7 8 7 10 10 5 4 5 5 8 9 11 14 13 14 16 18 17
15 15 14 13 13 12 12 12 11 11 10 10 10 10 10 11 11 11 11 11 10 10 11 11 10 9 8 7 5 4 3 4 5 4 5 6 7 9 9 8 6 3 2 4 4 3 2 1 2 2 3 3 4 4 4 5 2 1 4 3 5 6 3 2 4 7 8 8 11 8 6 6 8 10 9 7 5 4 10 14 13 12 14 15 16 17 18 18
15 14 14 13 13 13 12 12 11 11 10 10 10 10 11 11 11 11 11 11 11 11 11 11 10 9 8 7 5 4 1 1 4 6 5 7 8 9 9 8 6 4 2 2 3 4 1 1 2 2 3 2 4 3 3 5 4 3 2 1 6 7 2 4 6 7 10 9 9 8 6 6 8 8 9 11 7 6 10 13 14 14 12 13 15 16 18 18
15 14 14 13 13 12 12 12 11 11 11 11 11 11 11 11 11 11 11 11 11 11 11 11 10 9 8 7 5 5 3 1 6 9 7 7 8 8 8 7 5 4 4 3 3 4 2 0 2 2 3 2 3 3 2 4 2 2 2 1 5 6 3 7 9 9 10 9 9 9 7 8 8 5 9 14 13 11 10 11 12 14 13 12 15 16 16 17
15 15 14 13 13 12 12 11 11 11 11 11 11 11 10 10 11 11 11 11 11 11 11 10 9 9 7 7 5 6 6 3 8 10 7 7 7 7 6 5 5 4 5 4 4 4 2 1 2 4 4 3 1 2 3 4 3 4 1 1 4 6 5 9 9 9 9 9 9 8 7 9 9 6 7 14 18 16 14 13 12 13 13 14 15 16 16 16
16 15 15 14 13 12 12 11 11 11 10 10 10 10 10 10 11 11 11 11 11 11 10 10 9 9 8 7 6 5 8 6 9 11 8 8 7 6 5 3 3 3 3 4 4 3 2 2 4 5 3 2 2 1 2 3 4 4 2 3 3 3 6 9 8 8 8 7 8 8 8 9 10 6 6 14 17 16 16 15 13 13 14 16 16 16 16 16
17 16 15 15 14 13 13 12 11 11 11 10 10 10 10 10 10 10 11 11 11 11 10 10 9 9 8 7 5 5 6 6 10 13 9 8 7 6 5 3 1 0 1 2 3 3 2 4 4 4 3 3 4 2 3 2 2 1 4 4 3 3 5 8 9 9 8 8 8 7 6 7 9 5 8 16 16 15 15 14 14 15 16 17 17 17 16 16
18 17 17 16 15 14 14 13 12 12 11 11 10 10 10 10 11 11 11 11 11 11 10 10 10 9 8 8 5 3 5 7 11 14 11 9 8 6 4 3 2 2 2 1 0 1 3 4 4 5 5 4 4 3 3 2 1 2 3 2 3 3 4 7 9 10 9 8 9 9 5 5 7 4 7 13 14 15 16 15 16 17 17 18 17 17 17 17
18 18 18 17 16 16 15 14 13 13 12 12 12 12 11 11 11 11 11 11 11 10 10 11 10 10 9 8 7 5 4 6 11 14 12 10 8 6 5 4 3 3 2 1 1 2 3 4 4 4 3 3 3 2 3 3 3 2 2 2 4 4 5 7 9 11 9 6 9 9 4 2 3 4 9 11 13 16 17 18 19 19 18 18 18 18 18 18
18 18 18 18 17 17 16 15 14 13 13 13 13 13 13 12 12 12 12 12 11 11 11 11 10 10 9 9 13 11 4 5 11 14 13 11 10 8 6 5 4 3 3 1 0 1 3 3 3 2 2 4 3 2 3 3 2 2 4 3 6 8 5 6 6 9 8 4 5 6 3 4 4 8 11 10 13 16 18 19 20 20 20 19 19 19 19 19
18 18 17 17 17 17 16 15 14 14 13 13 14 14 14 14 14 13 13 12 12 12 12 11 11 10 9 9 13 12 8 7 12 15 14 12 11 9 7 6 5 4 4 4 3 2 3 2 2 3 4 4 2 2 3 3 3 1 4 2 4 8 5 3 1 5 8 3 4 7 3 6 7 13 11 9 14 17 19 21 21 21 21 21 21 21 20 20
19 19 18 17 17 17 16 15 15 14 14 13 14 14 15 15 15 15 14 14 13 13 12 12 11 10 10 10 10 11 11 11 12 15 15 14 13 11 8 6 6 5 5 5 4 4 3 2 1 2 4 3 3 5 2 4 3 1 1 2 2 2 4 5 0 7 7 4 7 8 2 7 8 10 8 10 15 18 21 23 23 23 23 23 23 22 22 21
21 20 19 18 18 17 17 16 15 14 13 13 14 14 14 15 15 15 15 14 14 13 13 12 11 9 8 10 12 11 12 14 15 16 16 15 14 12 9 7 7 7 7 6 5 5 4 3 2 2 3 4 5 5 3 4 3 3 1 3 3 1 5 8 2 9 6 3 7 7 2 7 9 8 7 12 17 20 22 23 24 25 25 25 24 24 24 23
23 22 21 21 20 19 18 17 16 15 13 13 14 14 14 14 15 15 15 14 14 13 12 10 11 9 5 7 10 11 14 16 17 18 18 17 16 13 9 8 8 8 8 7 6 6 4 4 3 4 3 4 4 4 4 3 4 4 0 3 2 2 3 7 3 7 4 3 5 4 2 4 5 4 4 13 19 21 21 22 24 26 26 26 26 26 26 25
25 24 23 22 22 21 20 19 18 16 15 15 15 14 14 14 14 14 13 14 13 13 11 8 7 8 7 8 9 11 16 18 19 20 19 18 17 13 9 9 9 9 9 7 7 5 4 4 5 3 2 3 3 5 3 2 4 3 1 2 4 3 2 3 4 4 3 3 3 4 3 7 7 3 3 11 18 21 22 24 26 26 27 27 27 28 28 28
27 26 25 24 24 23 22 21 19 18 17 16 15 14 13 12 12 12 12 13 12 9 7 7 5 2 8 13 13 13 15 18 19 20 20 19 17 13 10 9 9 9 8 6 5 5 4 3 4 1 2 3 2 5 3 5 4 3 3 2 3 3 3 4 5 3 4 2 3 4 4 10 13 10 10 12 16 22 25 26 25 25 27 28 29 30 30 31
28 27 27 26 25 25 23 22 20 19 18 16 15 14 12 10 9 9 11 13 13 8 3 11 14 5 3 13 18 16 13 14 18 19 20 20 17 13 11 9 9 10 8 4 3 5 5 3 4 2 1 3 4 7 8 8 7 6 6 5 4 4 4 5 6 5 5 3 4 7 7 10 12 13 14 15 18 23 25 25 24 24 27 29 32 33 33 34
28 28 28 27 27 26 25 23 21 20 19 17 15 13 11 8 5 4 12 17 20 18 9 13 22 14 1 4 14 17 12 13 17 19 20 19 17 14 12 10 9 8 5 5 3 3 4 3 3 5 7 9 9 10 8 5 6 5 5 4 4 4 5 5 5 6 2 4 6 8 8 10 11 12 14 14 14 19 22 23 26 28 29 32 34 36 36 36
27 28 28 28 27 26 26 25 22 21 21 18 16 14 11 11 6 3 12 18 24 28 19 11 18 20 10 3 9 15 13 13 16 19 19 19 18 13 12 10 7 4 3 4 5 2 4 4 7 11 10 8 8 8 5 5 5 2 3 3 3 4 5 7 4 5 1 3 6 6 7 10 11 12 15 11 8 16 25 26 29 33 34 36 36 37 38 37
24 26 26 26 26 26 25 24 22 23 22 20 19 18 14 15 14 7 7 9 16 26 27 20 16 21 19 10 9 14 13 10 13 20 20 20 20 14 12 10 5 3 3 4 6 2 2 3 12 12 5 5 4 5 6 4 3 1 2 2 4 3 4 7 5 4 1 3 5 5 5 9 11 11 13 15 15 21 30 31 34 37 36 37 38 38 38 37
21 23 23 24 24 24 24 22 22 23 23 22 22 22 17 15 16 13 6 4 8 16 26 29 24 23 23 17 13 17 16 10 13 21 23 23 22 17 14 10 4 4 4 4 6 4 3 6 12 9 7 7 3 4 6 3 1 3 3 2 4 3 2 4 5 3 0 2 3 4 6 7 9 9 11 21 25 25 30 33 35 37 36 38 39 38 39 39
18 20 20 21 21 22 21 20 21 23 24 24 23 23 20 15 15 14 8 4 6 9 18 26 29 30 28 21 16 20 19 13 14 22 27 27 24 16 13 11 6 5 5 8 8 6 6 6 4 6 9 8 5 4 7 5 3 5 6 6 5 5 6 7 4 4 3 3 3 4 7 6 7 10 10 14 14 17 27 29 32 37 38 37 36 36 38 39
17 19 19 19 20 20 18 19 23 24 24 24 23 22 20 16 12 9 6 2 5 6 9 16 22 28 31 25 19 19 17 13 15 21 28 32 27 15 9 11 7 4 7 8 6 6 8 6 4 7 6 7 7 4 6 7 4 5 6 10 10 9 9 7 3 5 4 5 4 4 5 6 5 8 10 6 3 9 18 19 27 37 35 34 35 36 37 36
17 18 20 20 20 18 18 20 23 24 24 24 22 20 20 15 10 8 5 2 4 4 4 10 13 15 23 26 22 16 7 11 16 21 27 32 29 16 7 7 5 4 7 6 3 3 5 5 6 7 6 7 7 4 6 8 5 4 5 9 12 9 7 6 2 1 1 4 3 3 1 7 6 6 8 7 5 9 11 11 23 33 30 31 35 36 36 35
19 19 20 21 21 21 22 21 21 24 23 21 19 20 19 15 12 9 5 4 5 5 7 9 10 11 15 21 28 19 2 7 14 18 28 31 27 16 7 6 3 3 6 5 2 3 3 5 4 6 6 6 6 5 6 8 7 4 5 6 9 8 8 6 5 4 3 3 4 3 2 5 8 6 6 7 8 8 11 13 19 25 27 30 32 33 34 36
24 20 20 22 23 25 25 21 22 27 23 17 18 21 18 17 14 9 5 2 3 6 6 7 10 12 13 19 32 20 5 11 11 14 29 32 26 15 6 9 7 5 8 7 4 3 4 7 7 7 5 4 6 5 7 11 6 5 2 5 6 5 5 4 5 3 1 2 4 3 2 3 9 6 1 2 6 7 12 15 15 18 23 26 28 30 32 34
27 23 22 22 22 25 26 24 23 25 21 14 17 21 20 19 13 6 3 2 3 4 3 7 9 10 14 19 25 16 8 8 3 12 27 27 26 13 2 9 9 6 9 8 6 2 2 5 8 8 6 6 5 2 7 12 5 4 6 7 6 5 5 5 4 3 2 2 6 5 4 3 8 4 2 2 3 7 11 13 12 13 15 18 22 25 28 32
30 28 26 22 23 27 29 30 25 21 19 16 19 24 24 19 9 4 2 3 2 2 3 7 7 10 17 15 10 6 6 3 4 16 18 15 20 11 2 7 7 5 3 6 5 3 1 1 3 5 4 5 5 3 2 7 7 8 7 6 7 6 5 4 2 4 2 5 6 9 10 6 6 3 3 3 4 7 8 8 9 9 11 14 16 20 25 30
33 33 30 27 29 30 32 35 30 23 22 21 25 30 24 11 3 4 7 1 1 2 4 4 3 10 17 13 7 5 3 1 7 16 10 5 10 7 3 5 3 4 1 6 5 3 3 0 1 3 4 6 8 5 3 2 6 8 5 5 4 4 4 4 4 4 0 6 4 6 8 8 8 6 3 5 6 6 7 7 8 8 9 11 13 16 21 26
37 37 35 33 33 32 35 37 30 27 26 26 32 32 19 5 1 6 6 2 0 4 5 4 3 7 12 9 8 8 5 3 7 11 7 5 6 7 7 7 6 3 2 7 4 3 2 4 2 1 4 7 7 4 4 4 2 4 4 6 4 2 2 2 3 0 3 6 3 1 2 4 10 8 5 9 11 9 10 11 12 12 13 13 13 16 19 24
38 39 38 37 36 35 37 35 29 30 28 28 32 23 8 4 8 10 9 3 2 3 3 4 4 7 11 8 5 6 4 2 7 7 5 6 6 8 8 6 6 4 2 6 3 1 3 5 1 1 3 9 10 6 3 1 4 6 6 7 5 2 1 3 3 2 4 5 3 1 2 3 6 5 9 14 14 13 14 16 18 17 18 17 15 16 18 23
30 37 40 40 39 38 37 34 32 33 32 33 29 14 4 7 7 10 13 9 2 1 2 4 6 7 10 6 4 7 5 3 7 6 3 6 6 7 7 7 7 2 3 4 3 5 5 6 5 7 4 11 13 8 7 6 5 6 4 6 6 6 5 4 4 4 4 4 4 2 2 3 3 3 8 10 11 13 16 19 20 20 21 19 17 17 19 23
20 30 39 41 40 39 37 37 35 34 36 35 21 8 9 9 6 9 12 8 2 2 3 4 8 7 6 2 2 7 5 3 6 5 4 7 7 8 7 9 11 6 5 4 2 4 4 7 7 4 2 12 12 6 6 8 3 3 2 4 4 6 6 2 3 5 3 2 3 2 4 5 4 5 8 8 9 11 15 17 18 21 21 18 18 20 21 24
17 26 38 44 44 43 41 41 38 36 39 31 12 7 11 10 8 7 7 6 6 5 6 4 5 5 6 3 2 6 2 1 6 5 3 4 5 7 7 7 12 12 9 7 3 2 3 5 5 2 1 5 6 5 5 4 4 2 3 4 4 4 6 2 2 1 3 3 4 3 5 5 3 8 8 6 8 10 10 14 17 18 15 14 19 21 23 26
20 24 36 47 48 45 45 46 40 41 42 26 9 10 9 9 10 7 5 7 9 11 9 4 3 5 7 5 4 8 3 2 5 5 4 3 3 7 8 5 9 16 15 9 3 3 5 3 5 1 2 3 1 5 4 3 4 5 4 6 2 2 2 3 2 3 3 3 5 2 6 6 3 6 4 2 6 10 11 13 14 14 14 18 22 22 24 27
23 23 31 44 49 48 49 48 43 45 37 17 9 10 7 8 10 6 5 7 10 12 9 7 7 6 8 7 6 8 7 4 6 6 4 4 5 8 11 6 8 18 21 11 2 3 4 2 5 1 2 3 3 4 3 5 3 4 4 6 4 1 1 2 2 2 1 3 5 2 4 5 6 6 1 4 8 10 12 11 10 13 18 21 22 22 23 27
24 20 23 32 42 49 51 48 49 46 25 8 9 10 7 9 8 6 10 10 8 10 9 8 8 4 6 9 6 7 9 8 9 7 5 5 5 7 14 11 7 14 21 16 6 2 3 3 4 1 1 1 2 2 5 1 2 4 3 3 2 2 4 3 3 3 3 2 4 3 3 5 6 6 6 9 11 10 10 9 8 15 21 22 23 23 24 28
22 15 17 22 26 39 51 50 47 35 13 6 11 7 5 8 7 9 16 13 6 7 9 9 9 6 6 8 5 6 9 8 9 8 5 7 6 5 10 13 6 7 17 18 9 2 2 4 4 2 2 1 2 4 8 9 6 3 4 5 3 1 2 1 1 2 4 3 2 3 6 7 4 4 8 11 10 10 10 8 9 14 17 17 22 25 25 28
20 10 15 21 17 27 48 43 27 16 6 6 10 8 6 6 6 12 19 14 6 4 5 5 7 7 6 7 6 5 7 6 7 7 4 7 8 5 8 15 11 9 10 10 9 6 3 3 4 2 1 3 5 4 5 8 7 6 6 8 8 6 4 2 3 2 2 3 4 3 7 10 4 3 6 7 6 7 6 5 9 15 15 14 18 22 24 26
19 9 15 23 18 25 41 27 10 11 9 9 11 9 7 4 4 11 17 15 9 5 2 2 5 8 6 7 8 6 7 7 7 8 6 9 11 7 10 20 21 18 13 7 9 9 5 3 3 3 4 5 6 4 2 4 3 3 3 4 6 6 6 6 5 4 2 2 2 3 5 9 3 2 4 4 5 7 7 5 10 17 18 16 15 17 21 25
20 17 16 16 17 27 32 13 6 11 7 10 12 8 7 5 3 8 12 14 10 5 5 3 3 7 6 4 7 8 8 8 9 11 8 8 10 8 10 20 21 17 12 4 4 6 5 2 4 2 2 2 4 5 2 1 3 3 1 2 6 8 7 5 5 4 4 5 4 3 5 7 2 0 3 6 7 9 10 8 11 18 19 16 13 14 18 23
20 25 20 12 15 26 22 8 8 10 8 11 11 10 12 7 4 9 11 12 11 6 6 4 2 6 5 3 6 9 10 8 7 12 11 6 7 8 12 21 19 13 9 6 7 11 8 4 5 3 1 3 3 3 2 1 3 3 3 4 8 10 7 3 1 3 2 8 9 5 10 8 2 3 4 6 6 7 11 10 10 15 19 17 14 14 16 21
13 17 18 16 23 30 23 13 9 8 10 14 10 11 14 7 7 13 11 11 13 8 6 7 6 7 4 3 5 7 12 11 7 8 9 5 3 3 10 21 22 15 13 11 11 14 10 5 8 8 7 9 7 6 6 4 3 3 4 7 9 11 11 6 3 4 7 7 10 9 13 5 2 4 5 6 5 6 10 10 9 13 18 19 16 15 17 20
7 6 8 13 25 32 29 24 15 6 8 10 6 9 13 8 8 12 11 12 15 13 7 3 6 9 5 5 8 8 11 14 8 4 6 7 4 1 7 17 20 18 17 13 13 12 4 3 10 13 13 15 11 5 6 10 8 7 8 11 12 12 13 10 6 7 6 3 6 14 16 9 7 5 5 6 5 5 7 8 11 15 18 20 18 16 18 20
6 2 4 7 14 19 20 19 13 6 8 10 4 3 12 13 7 6 9 11 12 14 7 1 4 9 8 10 11 9 10 10 7 5 7 7 3 1 2 8 12 14 12 10 13 10 3 4 13 15 16 16 7 4 10 14 14 15 13 14 15 14 14 13 13 11 6 4 11 13 9 12 17 11 9 10 7 6 8 12 17 20 20 21 20 17 19 20
9 5 6 6 6 7 11 16 14 8 11 13 7 4 8 13 9 6 9 10 8 9 6 2 6 12 14 16 13 8 8 9 8 10 9 6 3 1 1 1 4 7 6 5 7 6 3 6 11 10 15 15 3 5 9 12 11 12 14 16 17 17 18 19 20 15 9 8 18 9 10 14 21 12 10 11 10 13 16 18 21 21 21 21 20 20 21 23
12 10 11 9 5 4 9 18 18 12 11 10 7 7 8 11 12 10 7 6 6 8 9 8 13 15 15 15 12 10 10 9 10 12 10 7 6 4 3 2 3 4 3 4 4 3 3 5 6 6 11 15 4 6 8 9 7 7 12 16 18 21 23 22 21 19 14 16 21 12 8 19 18 8 9 13 17 21 19 17 19 20 21 21 20 22 24 24
14 10 8 7 6 8 10 11 10 9 11 9 6 6 7 9 13 12 8 8 8 9 12 15 19 17 15 12 11 12 13 14 16 14 11 10 7 5 6 5 4 4 4 4 3 3 4 4 3 6 6 12 6 7 7 8 8 7 10 15 18 19 19 19 18 17 14 17 20 15 16 20 10 7 12 16 16 15 13 15 20 21 22 21 21 24 26 26
22 18 11 5 2 5 7 5 4 6 8 9 7 7 7 11 15 12 10 14 15 11 12 19 23 16 12 13 13 15 19 20 16 11 12 14 10 6 6 5 6 7 6 5 4 3 5 3 2 5 6 9 6 8 7 6 5 5 12 18 17 13 12 14 15 14 14 16 17 13 17 18 6 6 9 13 11 11 13 17 21 22 24 23 24 27 29 29
27 27 23 12 4 4 5 3 4 7 6 7 10 11 10 13 14 10 7 11 18 20 19 20 20 13 8 12 19 26 29 23 11 3 9 15 9 7 7 6 8 8 7 5 3 3 5 4 3 5 7 8 6 10 9 5 3 6 15 16 15 12 12 13 13 15 17 16 13 12 17 19 9 5 6 8 8 10 14 20 24 25 25 27 28 30 31 31
Wind_Direction
197 198 201 203 205 209 210 211 213 214 218 220 224 226 224 218 210 205 200 198 198 201 202 201 198 198 204 208 215 229 235 234 232 236 236 217 211 226 217 190 191 195 212 231 207 209 223 215 206 164 129 84 65 75 71 59 70 89 96 89 124 172 184 178 181 191 171 201 198 184 178 155 157 166 150 135 148 150 154 177 176 189 202 189 190 190 187 189
203 204 206 208 209 212 213 215 217 220 223 226 228 226 221 213 206 203 200 201 201 206 205 200 198 201 210 214 221 236 241 241 239 243 233 219 225 221 187 176 170 155 121 93 222 240 247 262 228 147 122 97 65 72 78 51 60 81 100 97 182 201 195 200 194 195 185 186 179 175 183 171 171 172 163 167 168 152 149 168 169 179 184 183 189 188 190 196
206 207 208 209 211 213 214 217 220 224 225 226 227 221 215 210 206 204 203 204 204 207 204 200 201 207 216 219 227 239 246 248 246 244 225 220 218 189 173 173 161 142 102 62 32 291 247 265 222 146 100 97 66 69 65 42 51 66 92 94 226 212 204 239 199 197 212 194 163 164 191 183 179 173 174 191 177 181 207 192 182 192 193 189 187 188 195 200
205 206 207 208 211 214 217 219 222 225 224 223 221 217 214 212 210 209 207 208 208 206 201 201 205 211 220 224 231 238 254 264 237 216 204 200 184 175 173 175 170 161 91 47 29 355 251 220 182 165 89 85 50 63 43 28 39 52 103 145 207 177 155 204 176 190 200 178 160 161 171 177 178 177 187 175 150 243 239 218 216 220 211 201 194 192 197 204
203 206 207 208 211 213 215 216 217 217 217 216 214 215 215 215 215 213 211 210 208 204 201 203 208 214 221 224 233 227 223 349 199 173 158 160 159 169 177 184 199 219 251 346 359 352 308 142 137 117 76 64 32 51 23 27 71 67 33 234 173 153 139 177 154 151 163 161 160 158 159 177 178 185 203 184 175 235 238 234 236 237 230 217 209 203 202 207
199 202 203 205 205 206 207 207 208 208 210 211 212 215 215 215 216 214 213 210 206 204 203 205 210 216 223 224 236 224 204 73 175 166 146 146 151 166 179 197 219 239 256 273 309 331 325 137 132 98 63 56 30 60 45 18 67 96 337 312 168 179 189 167 157 151 160 167 171 175 187 189 180 201 216 205 216 232 242 251 245 239 231 220 215 213 212 212
191 193 194 196 196 198 199 201 203 204 207 209 211 213 213 213 213 213 211 208 206 205 206 209 213 219 225 226 235 230 233 233 175 171 158 152 159 171 181 212 236 259 260 262 283 300 291 200 131 102 77 75 74 82 50 23 62 108 136 267 174 205 201 167 163 167 176 190 195 196 201 197 192 204 219 221 233 239 245 252 247 237 222 213 211 212 215 214
187 189 189 189 191 192 193 197 198 200 204 206 209 209 210 211 211 211 208 207 207 207 210 213 216 222 229 233 241 245 245 233 186 182 175 168 174 179 193 231 258 278 272 270 270 258 230 160 130 111 92 88 123 123 46 39 42 78 155 206 163 192 196 177 179 187 195 210 211 205 201 204 202 205 235 235 238 240 240 243 240 230 217 212 211 211 213 215
187 189 189 190 192 192 194 198 196 197 201 202 206 208 209 211 212 211 209 210 209 209 214 216 220 224 232 237 246 256 242 220 194 192 184 183 186 187 208 232 250 326 348 297 249 224 189 136 125 123 133 133 122 86 61 69 342 72 147 173 172 192 197 195 208 206 207 215 205 200 208 216 209 219 259 245 240 238 233 230 227 223 217 214 213 216 219 223
193 192 192 194 195 197 200 202 201 201 202 202 204 206 210 212 214 214 213 214 213 216 218 219 223 223 232 239 236 239 229 208 197 197 192 191 192 194 207 199 171 97 52 350 170 170 150 126 111 119 124 125 119 67 44 77 124 122 124 166 204 227 231 219 223 222 219 224 214 205 214 229 205 199 252 242 232 229 224 219 218 218 219 219 220 224 228 232
200 198 197 197 198 201 203 204 206 206 207 208 208 209 212 213 216 217 218 219 220 222 224 225 227 226 233 236 224 213 224 217 201 198 197 195 196 199 199 187 171 127 94 39 88 115 131 120 108 129 130 119 120 62 54 87 108 93 41 282 278 314 283 237 224 226 218 233 230 211 224 253 170 190 242 238 224 224 222 218 217 216 219 223 228 233 235 235
211 208 204 202 202 203 205 205 206 209 211 213 215 216 216 217 219 220 222 222 223 225 228 230 231 232 235 241 236 229 239 230 201 197 200 199 197 195 195 196 187 163 153 137 153 147 133 121 103 125 142 141 138 63 82 89 76 49 42 315 301 350 326 240 229 224 201 222 229 190 261 280 203 221 237 230 217 217 217 217 218 218 221 226 231 236 237 236
220 218 214 212 211 210 210 208 208 211 213 215 220 222 221 222 222 223 225 225 226 226 228 231 233 236 238 246 246 236 234 221 197 198 202 203 202 197 198 203 202 196 187 183 195 186 153 139 104 113 127 135 141 111 118 69 51 28 52 35 317 355 334 252 242 201 183 209 187 155 257 273 244 240 231 216 211 208 210 215 219 221 223 226 230 235 236 235
223 224 223 222 222 222 220 218 216 215 215 218 222 225 226 226 225 226 227 228 229 229 229 231 233 235 237 244 251 241 228 216 203 204 206 207 205 203 207 209 210 211 206 199 197 195 182 170 130 128 127 120 128 128 89 22 39 2 17 30 7 348 281 289 302 158 162 216 180 148 234 266 267 261 233 217 213 208 212 216 219 223 224 227 229 233 235 233
226 226 226 226 227 228 228 228 227 224 223 225 226 228 229 229 229 228 228 229 230 231 231 231 232 232 241 248 247 241 227 218 212 209 207 209 208 209 216 214 213 215 212 207 199 201 206 210 198 128 121 122 123 112 29 0 17 27 350 302 343 179 264 308 253 170 160 203 175 148 230 266 276 279 242 217 210 211 218 220 222 225 226 228 230 232 234 232
231 229 227 227 226 228 230 231 232 233 234 234 232 231 231 230 230 229 229 229 230 231 229 230 230 223 237 253 243 238 228 219 214 209 205 207 208 212 218 216 216 216 212 210 209 212 218 206 155 114 130 135 117 90 46 10 344 0 79 246 271 181 272 322 279 202 187 138 176 193 231 269 287 303 226 206 207 211 218 225 226 227 229 230 232 234 233 231
233 232 231 230 229 228 228 230 233 236 239 239 237 235 234 232 230 229 227 225 226 225 223 222 224 224 243 253 242 237 228 218 213 209 204 205 210 216 217 214 213 212 210 210 215 211 205 175 141 128 95 86 97 93 64 323 292 311 355 246 241 199 217 300 308 253 193 136 201 222 227 251 266 302 216 204 209 212 218 229 231 230 231 232 234 236 235 233
234 233 234 233 234 233 231 232 233 236 240 240 243 241 235 232 230 226 220 218 212 207 214 202 170 204 248 239 232 231 227 219 212 208 206 206 212 218 212 209 212 207 199 201 210 188 176 141 119 120 26 37 80 107 144 228 210 201 197 214 251 238 218 248 287 244 161 145 221 198 233 256 264 275 256 230 215 214 223 232 234 234 234 235 236 237 237 236
236 235 234 234 236 236 236 236 235 238 239 239 243 240 234 228 222 220 213 207 194 177 203 201 185 166 238 228 224 226 226 215 209 207 207 208 211 211 200 201 205 192 173 168 197 172 156 106 87 103 236 215 194 168 194 207 170 165 174 165 196 230 250 237 253 249 178 165 226 211 225 245 257 267 259 243 222 220 229 236 238 240 238 237 237 238 238 237
235 236 235 234 235 237 238 238 238 239 238 238 236 229 222 198 178 214 208 205 205 203 212 209 202 200 197 222 216 217 215 204 204 203 203 205 205 197 185 182 180 177 167 161 183 175 146 133 155 204 216 207 202 198 196 165 139 131 133 156 198 214 263 255 256 287 194 170 240 224 224 243 249 259 263 251 224 223 232 237 240 239 238 238 237 238 238 238
233 234 235 235 235 236 238 237 236 236 235 235 225 215 207 189 179 221 205 212 222 218 219 221 210 212 222 246 211 207 200 191 198 199 198 199 193 184 178 172 155 168 214 151 129 124 130 152 217 225 218 199 195 196 175 131 140 120 131 193 246 214 252 259 253 299 159 171 262 248 234 251 249 252 264 255 210 226 233 232 238 239 238 239 238 238 238 238
233 232 233 233 233 234 235 235 233 231 231 229 220 212 212 209 213 224 205 225 239 228 225 226 221 217 219 228 213 201 194 181 192 196 192 186 183 184 178 165 154 171 187 125 108 95 134 210 236 230 180 125 141 170 167 166 169 159 133 179 261 240 269 280 278 311 124 180 265 281 261 258 256 254 259 248 226 236 241 238 242 243 239 239 238 238 237 235
236 232 231 231 231 231 231 231 229 227 224 224 221 215 215 218 219 223 226 265 268 241 230 227 228 222 215 217 210 198 194 189 190 191 188 182 181 188 178 162 160 149 151 170 154 152 183 240 245 218 144 132 144 134 137 138 182 193 173 180 242 238 251 274 289 322 21 216 267 297 288 272 268 264 256 249 240 242 249 248 250 249 244 244 244 242 239 234
236 229 228 229 228 226 227 226 222 222 222 223 224 217 214 218 218 221 229 268 287 251 235 232 230 227 219 215 211 202 201 206 200 190 187 183 177 182 184 170 146 133 180 196 180 185 215 244 236 167 161 172 161 122 133 152 235 235 206 199 220 223 216 230 285 327 337 335 3 349 302 274 249 250 251 254 246 244 250 249 251 251 247 247 247 245 241 237
234 227 224 223 224 222 219 216 215 220 222 223 224 215 211 214 211 214 215 274 289 253 242 231 228 232 225 217 214 204 204 217 215 199 191 188 181 171 176 177 158 169 202 196 191 230 245 239 139 131 164 173 158 159 171 173 209 264 227 205 214 217 224 239 312 359 354 322 343 26 304 279 248 244 253 274 290 251 250 246 247 250 248 244 242 241 239 237
235 230 223 218 218 212 205 210 216 220 220 223 222 208 206 206 192 189 167 35 293 232 202 203 211 225 216 211 201 184 202 234 217 205 195 194 191 174 155 172 162 190 189 169 196 252 246 212 143 129 153 163 172 206 210 180 172 260 244 206 210 208 219 238 198 106 268 259 292 63 225 277 278 242 241 245 245 256 259 252 249 250 248 243 242 241 238 234
237 232 226 220 214 204 200 207 215 215 214 222 218 201 198 189 170 168 137 17 279 189 152 179 187 191 198 199 186 172 181 202 189 202 197 193 193 183 173 177 146 191 168 131 234 251 176 181 137 117 131 147 176 217 217 173 154 237 255 187 190 193 207 214 172 191 239 257 313 27 118 277 281 255 234 214 220 264 271 260 255 250 246 244 243 240 237 236
241 236 229 223 217 211 206 206 213 213 212 217 208 194 185 172 164 152 125 331 247 151 147 172 169 178 182 181 182 177 137 147 155 198 194 191 193 189 204 199 170 181 172 151 224 257 141 178 183 156 145 169 194 213 181 155 159 247 226 134 153 166 176 155 135 188 318 5 297 299 121 268 275 265 297 196 202 249 259 254 256 253 249 248 246 243 239 236
238 238 236 226 218 215 210 208 214 214 211 207 194 185 172 163 157 120 98 231 189 121 148 160 152 167 159 163 182 182 143 144 141 181 183 188 193 190 218 202 179 167 187 195 222 246 105 192 193 165 166 199 204 228 167 163 185 202 132 92 80 76 79 83 105 126 47 322 246 221 167 244 273 242 116 88 185 225 245 252 259 262 258 254 251 246 240 235
234 236 238 228 215 211 207 210 215 207 199 193 182 174 164 156 145 121 184 223 190 111 128 153 163 164 151 151 185 190 150 150 107 150 167 184 190 189 113 168 165 133 196 267 247 238 358 105 174 169 184 178 137 69 149 169 156 135 111 66 53 35 39 50 47 80 35 278 231 200 186 195 271 267 163 180 203 213 230 252 269 272 264 258 254 248 239 233
231 232 233 228 221 214 207 210 211 195 183 180 174 166 159 147 105 177 202 235 22 140 125 153 172 155 157 158 175 184 155 118 136 149 159 169 178 184 122 142 142 97 356 283 268 305 338 104 198 204 178 133 104 69 33 99 132 122 90 83 76 350 9 24 356 48 220 259 235 207 189 187 236 258 225 244 260 234 219 237 262 271 271 268 260 249 240 233
232 228 228 229 227 220 215 217 209 186 174 172 171 165 154 142 254 218 208 69 72 194 159 173 186 162 167 168 176 176 152 144 167 164 163 154 167 189 192 186 165 127 253 239 241 338 267 234 268 299 183 162 124 81 37 29 105 114 96 115 112 331 355 348 307 67 228 256 289 312 153 206 242 250 249 260 266 247 227 231 245 257 269 275 268 254 241 229
240 231 224 224 228 225 222 222 206 181 170 168 170 164 145 179 197 209 210 178 201 210 140 131 141 154 159 163 186 172 139 173 179 173 169 156 176 207 221 223 186 161 199 194 183 202 262 294 289 120 230 194 168 154 163 193 185 169 145 146 150 141 167 265 265 266 265 269 308 336 167 246 276 269 235 240 250 250 247 249 252 258 264 268 270 260 243 229
244 239 227 220 225 226 222 219 203 182 169 165 166 163 182 211 196 200 210 209 209 36 78 113 115 140 163 173 197 165 153 222 177 161 169 156 177 215 227 236 218 176 95 143 171 180 217 288 207 179 201 186 183 188 170 137 162 186 158 146 163 162 172 213 217 225 257 283 304 287 191 207 221 261 243 246 272 270 259 258 260 263 264 263 263 253 238 228
239 249 236 223 220 222 223 218 203 186 173 165 165 176 189 200 206 210 212 203 177 59 52 102 111 136 190 248 257 179 172 226 174 153 173 175 193 206 199 210 205 172 132 180 221 159 199 268 237 214 165 167 180 189 131 108 143 216 119 125 187 186 166 183 202 182 181 293 297 225 222 222 211 264 267 267 288 275 260 263 262 262 263 258 252 242 231 225
235 251 239 225 219 218 221 217 203 189 179 169 171 203 194 200 200 198 200 177 167 135 104 94 94 137 198 223 250 212 199 106 153 158 199 201 223 212 203 214 197 184 180 183 190 142 173 272 280 346 52 169 180 168 134 140 181 161 139 178 205 171 138 134 262 63 89 263 269 200 242 287 305 278 268 246 263 273 274 269 259 257 258 247 240 235 228 223
237 248 233 222 221 220 217 215 204 190 183 178 195 206 198 215 204 185 186 165 154 143 134 165 180 165 188 194 206 203 192 109 156 178 195 188 248 215 206 232 195 192 200 188 195 199 170 258 298 81 175 264 94 116 85 46 117 127 183 197 157 67 91 111 244 347 47 254 269 219 243 275 276 273 308 107 238 263 268 262 261 262 251 237 234 231 227 223
237 255 239 224 225 223 217 214 202 189 186 187 212 213 211 220 205 183 175 154 142 152 168 202 192 174 184 191 199 186 174 170 176 192 187 182 245 208 185 207 200 199 204 193 210 243 167 236 303 63 187 291 22 115 88 13 59 122 174 172 127 141 216 120 176 229 175 248 280 278 249 252 216 225 262 163 209 238 252 258 268 262 245 236 233 228 224 222
238 256 257 238 229 223 220 215 199 190 190 195 204 212 219 215 208 170 164 163 155 168 190 207 194 184 187 182 172 167 181 187 172 179 189 188 234 205 179 192 204 200 198 188 194 226 153 205 268 321 219 312 18 165 186 211 23 51 102 140 111 135 180 166 162 177 165 218 279 292 273 253 216 200 195 202 208 214 237 253 255 253 249 241 234 228 222 220
236 242 265 254 239 229 221 208 195 191 194 208 204 209 205 206 216 194 181 178 173 179 198 207 189 179 190 185 169 165 189 194 173 183 205 193 212 230 190 186 177 180 187 187 196 182 134 211 237 313 336 185 193 209 191 180 172 157 156 168 178 110 106 156 183 125 132 168 228 273 280 268 231 190 191 200 210 210 221 240 248 260 265 253 242 235 227 223
230 231 253 246 252 234 211 197 190 195 198 211 215 220 212 202 202 202 199 201 216 208 200 205 194 185 178 180 190 183 181 187 182 191 218 204 208 238 200 183 166 149 161 184 206 198 176 196 184 177 227 203 224 247 210 194 186 181 190 189 183 166 135 157 233 210 131 184 189 188 273 271 236 191 202 198 215 227 227 241 261 277 286 275 257 246 234 228
219 226 245 236 244 221 199 189 191 195 193 210 213 215 213 206 190 195 200 209 229 247 215 202 204 197 183 181 192 176 164 181 190 193 218 216 210 219 198 186 175 160 153 174 208 194 156 123 156 197 218 214 242 272 218 194 144 121 205 200 172 172 166 171 215 216 158 220 182 129 274 277 252 183 229 227 243 267 276 267 269 282 289 284 272 257 242 234
219 228 240 235 238 214 195 191 213 196 205 216 207 212 214 210 184 179 188 200 211 219 208 208 201 201 202 179 174 172 175 189 194 197 213 223 218 222 196 184 174 161 159 176 204 170 133 129 187 220 310 299 308 329 355 100 109 120 233 166 167 198 191 176 198 179 172 208 169 123 258 266 286 297 269 275 281 285 280 268 268 281 287 284 275 265 250 236
228 230 237 233 227 211 196 195 202 199 222 214 206 217 214 217 199 181 188 195 195 192 198 209 209 206 212 152 154 181 189 194 206 207 209 215 217 214 193 183 176 168 180 189 173 168 168 186 188 179 318 321 331 325 284 237 161 187 217 184 193 200 175 141 130 115 215 213 164 178 244 244 280 324 310 302 306 295 274 262 262 277 287 285 273 264 253 238
239 227 229 221 211 205 206 218 207 197 210 207 210 210 206 221 217 203 203 196 195 195 194 207 198 184 193 172 170 189 194 200 215 209 209 223 222 203 194 189 184 186 203 202 176 171 176 189 183 184 210 220 222 228 214 186 159 191 207 189 197 195 177 181 186 174 233 213 159 200 240 244 331 312 302 297 305 299 276 267 266 277 290 289 276 261 251 238
261 226 211 207 205 207 216 223 217 207 207 205 213 205 203 215 210 206 208 201 202 201 190 191 176 170 178 186 190 203 206 211 213 181 198 215 213 218 201 194 192 198 208 200 175 166 164 221 199 198 212 216 218 212 144 128 152 202 202 186 194 199 190 191 205 209 214 173 188 225 235 249 269 260 268 274 265 268 276 279 279 281 288 289 280 265 251 242
267 259 196 188 202 214 225 225 214 194 188 193 193 185 202 212 209 197 202 207 210 203 195 47 154 181 190 189 200 212 206 209 209 187 203 205 191 353 194 192 203 208 206 192 175 165 124 226 212 212 223 225 215 165 150 149 174 197 193 190 199 198 191 195 212 213 157 144 241 234 205 241 254 237 236 256 257 259 260 259 266 272 279 283 280 268 252 243
245 263 240 215 198 206 216 217 215 197 180 186 192 185 199 210 210 193 198 213 217 197 188 227 214 208 200 193 200 207 191 200 211 210 212 195 143 103 120 196 225 207 190 173 177 166 144 214 216 213 230 235 198 122 171 171 177 194 191 195 199 195 196 203 214 214 169 197 246 229 156 227 249 238 230 235 231 240 246 250 258 264 267 271 271 263 252 243
237 265 270 254 236 236 225 217 215 212 196 183 184 194 197 207 213 212 202 203 216 202 190 208 224 221 212 201 197 197 192 195 210 213 206 183 166 159 160 219 230 192 157 155 186 188 166 209 204 182 231 245 211 136 179 176 169 199 202 202 202 199 202 204 212 218 206 222 246 246 232 252 252 226 223 230 230 240 248 250 251 252 255 258 259 259 255 246
226 238 268 275 254 262 264 233 207 209 212 198 191 198 194 203 213 218 209 190 199 204 197 213 226 221 214 211 203 208 210 203 210 213 187 177 192 187 183 193 175 162 167 173 196 203 187 198 144 134 224 250 210 149 174 177 177 201 216 218 213 205 204 207 213 217 213 231 247 253 263 266 247 186 229 240 235 238 241 239 239 243 249 250 251 255 255 250
234 231 247 294 278 241 256 239 185 202 212 205 208 202 199 214 214 212 216 209 208 207 196 213 226 221 214 216 214 223 223 214 218 216 182 185 194 183 190 193 155 160 180 182 175 170 184 199 110 130 215 239 194 155 168 169 163 219 241 233 216 199 202 209 214 210 203 221 238 244 254 257 229 157 224 234 225 225 229 232 237 241 243 244 246 252 255 253
239 238 243 256 268 230 232 221 201 213 206 193 201 199 199 214 210 201 217 219 218 220 215 216 224 221 208 213 218 227 229 226 230 230 192 199 190 141 141 156 160 166 165 161 170 166 169 175 155 167 211 236 192 157 154 135 136 243 248 227 195 187 205 210 215 217 207 208 219 225 239 249 240 170 201 222 218 223 229 233 237 239 240 241 245 250 254 255